| time (UTC) | temp C | wind direction | speed KPH | gust KPH | rain 1hr cm | rain 24hr cm | rain mn cm | humidity % | barometer mb |
| 20260502123018 | 23 | 261 | 8.0 | 17.7 | 0.00 | 0.00 | 0.00 | 47 | 1017.3 |
| 20260502122019 | 22 | 265 | 4.8 | 14.5 | 0.00 | 0.00 | 0.00 | 49 | 1017.5 |
| 20260502121018 | 22 | 260 | 8.0 | 19.3 | 0.00 | 0.00 | 0.00 | 48 | 1017.7 |
| 20260502115018 | 22 | 256 | 6.4 | 17.7 | 0.00 | 0.00 | 0.00 | 49 | 1017.9 |
| 20260502114019 | 22 | 266 | 8.0 | 22.5 | 0.00 | 0.00 | 0.00 | 48 | 1018.0 |
| 20260502113018 | 22 | 269 | 4.8 | 16.1 | 0.00 | 0.00 | 0.00 | 49 | 1018.1 |
| 20260502112058 | 21 | 264 | 8.0 | 17.7 | 0.00 | 0.00 | 0.00 | 49 | 1018.4 |
| 20260502111018 | 21 | 301 | 3.2 | 9.7 | 0.00 | 0.00 | 0.00 | 50 | 1018.4 |
| 20260502110017 | 21 | 262 | 6.4 | 19.3 | 0.00 | 0.00 | 0.00 | 50 | 1018.5 |
| 20260502105038 | 21 | 184 | 4.8 | 16.1 | 0.00 | 0.00 | 0.00 | 49 | 1018.5 |
| 20260502104017 | 21 | 270 | 6.4 | 11.3 | 0.00 | 0.00 | 0.00 | 50 | 1018.5 |
| 20260502103058 | 21 | 256 | 6.4 | 11.3 | 0.00 | 0.00 | 0.00 | 49 | 1018.7 |
| 20260502102017 | 20 | 260 | 3.2 | 14.5 | 0.00 | 0.00 | 0.00 | 48 | 1018.7 |
| 20260502101018 | 20 | 242 | 4.8 | 14.5 | 0.00 | 0.00 | 0.00 | 49 | 1018.9 |
| 20260502091017 | 19 | 253 | 8.0 | 19.3 | 0.00 | 0.00 | 0.00 | 45 | 1019.5 |
| 20260502071018 | 17 | 301 | 3.2 | 11.3 | 0.00 | 0.00 | 0.00 | 48 | 1019.6 |
| 20260502070017 | 17 | 272 | 1.6 | 11.3 | 0.00 | 0.00 | 0.00 | 48 | 1019.5 |
| 20260502065018 | 16 | 220 | 3.2 | 12.9 | 0.00 | 0.00 | 0.00 | 48 | 1019.5 |
| 20260502064018 | 16 | 257 | 3.2 | 11.3 | 0.00 | 0.00 | 0.00 | 49 | 1019.5 |
| 20260502063018 | 16 | 202 | 4.8 | 14.5 | 0.00 | 0.00 | 0.00 | 49 | 1019.4 |
| 20260502062059 | 15 | 195 | 4.8 | 16.1 | 0.00 | 0.00 | 0.00 | 51 | 1019.3 |
| 20260502061019 | 15 | 204 | 4.8 | 14.5 | 0.00 | 0.00 | 0.00 | 51 | 1019.6 |
| 20260502060018 | 15 | 289 | 3.2 | 12.9 | 0.00 | 0.00 | 0.00 | 52 | 1019.8 |
| 20260502055019 | 15 | 263 | 3.2 | 9.7 | 0.00 | 0.00 | 0.00 | 53 | 1019.7 |
| 20260502054018 | 14 | 294 | 3.2 | 9.7 | 0.00 | 0.00 | 0.00 | 52 | 1019.5 |
| 20260502053018 | 14 | 218 | 4.8 | 9.7 | 0.00 | 0.00 | 0.00 | 53 | 1019.4 |
| 20260502052018 | 13 | 256 | 3.2 | 11.3 | 0.00 | 0.00 | 0.00 | 53 | 1019.5 |
| 20260502051038 | 13 | 319 | 3.2 | 9.7 | 0.00 | 0.00 | 0.00 | 54 | 1019.4 |
| 20260502050018 | 13 | 327 | 4.8 | 9.7 | 0.00 | 0.00 | 0.00 | 54 | 1019.5 |
| 20260502045038 | 13 | 21 | 3.2 | 8.0 | 0.00 | 0.00 | 0.00 | 54 | 1019.4 |
| 20260502044041 | 13 | 252 | 4.8 | 9.7 | 0.00 | 0.00 | 0.00 | 54 | 1019.5 |
| 20260502043019 | 13 | 154 | 3.2 | 6.4 | 0.00 | 0.00 | 0.00 | 53 | 1019.5 |
| 20260502042059 | 13 | 252 | 4.8 | 12.9 | 0.00 | 0.00 | 0.00 | 53 | 1019.5 |
| 20260502041018 | 13 | 229 | 4.8 | 9.7 | 0.00 | 0.00 | 0.00 | 53 | 1019.5 |
| 20260502040019 | 13 | 227 | 3.2 | 8.0 | 0.00 | 0.00 | 0.00 | 53 | 1019.7 |
| 20260502035020 | 13 | 212 | 4.8 | 12.9 | 0.00 | 0.00 | 0.00 | 54 | 1019.7 |
| 20260502034039 | 13 | 299 | 4.8 | 12.9 | 0.00 | 0.00 | 0.00 | 53 | 1019.8 |
| 20260502033018 | 13 | 280 | 3.2 | 6.4 | 0.00 | 0.00 | 0.00 | 53 | 1020.0 |
| 20260502032019 | 13 | 257 | 3.2 | 9.7 | 0.00 | 0.00 | 0.00 | 52 | 1020.0 |
| 20260502031020 | 13 | 204 | 3.2 | 12.9 | 0.00 | 0.00 | 0.00 | 52 | 1020.0 |
| 20260502030018 | 13 | 171 | 3.2 | 8.0 | 0.00 | 0.00 | 0.00 | 52 | 1020.0 |
| 20260502025017 | 13 | 280 | 1.6 | 6.4 | 0.00 | 0.00 | 0.00 | 51 | 1020.1 |
| 20260502024018 | 14 | 253 | 1.6 | 6.4 | 0.00 | 0.00 | 0.00 | 51 | 1020.0 |
| 20260502023017 | 14 | 233 | 1.6 | 8.0 | 0.00 | 0.00 | 0.00 | 50 | 1020.1 |
| 20260502022018 | 14 | 221 | 1.6 | 9.7 | 0.00 | 0.00 | 0.00 | 50 | 1020.1 |
| 20260502021018 | 14 | 250 | 1.6 | 4.8 | 0.00 | 0.00 | 0.00 | 49 | 1020.3 |
| 20260502020019 | 15 | 255 | 0.0 | 6.4 | 0.00 | 0.00 | 0.00 | 49 | 1020.2 |
| 20260502015019 | 15 | 236 | 3.2 | 6.4 | 0.00 | 0.00 | 0.00 | 49 | 1020.3 |
| 20260502014018 | 15 | 246 | 3.2 | 6.4 | 0.00 | 0.00 | 0.00 | 49 | 1020.3 |
| 20260502013039 | 15 | 246 | 3.2 | 9.7 | 0.00 | 0.00 | 0.00 | 49 | 1020.4 |
| 20260502012018 | 15 | 251 | 1.6 | 8.0 | 0.00 | 0.00 | 0.00 | 48 | 1020.5 |
| 20260502011020 | 15 | 259 | 3.2 | 8.0 | 0.00 | 0.00 | 0.00 | 48 | 1020.7 |
| 20260502010018 | 15 | 246 | 3.2 | 8.0 | 0.00 | 0.00 | 0.00 | 48 | 1020.9 |
| 20260502005018 | 15 | 261 | 3.2 | 8.0 | 0.00 | 0.00 | 0.00 | 48 | 1020.9 |
| 20260502004017 | 15 | 256 | 3.2 | 6.4 | 0.00 | 0.00 | 0.00 | 48 | 1021.0 |
| 20260502003018 | 15 | 243 | 3.2 | 6.4 | 0.00 | 0.00 | 0.00 | 47 | 1021.0 |
| 20260502002017 | 15 | 251 | 3.2 | 6.4 | 0.00 | 0.00 | 0.00 | 47 | 1021.2 |
| 20260502001038 | 15 | 267 | 1.6 | 4.8 | 0.00 | 0.00 | 0.00 | 46 | 1021.3 |
| 20260502000017 | 15 | 248 | 3.2 | 8.0 | 0.00 | 0.00 | 0.00 | 46 | 1021.3 |
| 20260501235019 | 15 | 249 | 1.6 | 8.0 | 0.00 | 0.00 | 0.00 | 45 | 1021.4 |
| 20260501234018 | 15 | 246 | 3.2 | 6.4 | 0.00 | 0.00 | 0.00 | 44 | 1021.5 |
| 20260501233019 | 16 | 251 | 1.6 | 6.4 | 0.00 | 0.00 | 0.00 | 44 | 1021.4 |
| 20260501232038 | 16 | 243 | 3.2 | 9.7 | 0.00 | 0.00 | 0.00 | 44 | 1021.5 |
| 20260501231018 | 16 | 267 | 1.6 | 9.7 | 0.00 | 0.00 | 0.00 | 43 | 1021.5 |
| 20260501230017 | 16 | 243 | 3.2 | 6.4 | 0.00 | 0.00 | 0.00 | 43 | 1021.6 |
| 20260501225019 | 16 | 237 | 3.2 | 9.7 | 0.00 | 0.00 | 0.00 | 43 | 1021.6 |
| 20260501224017 | 16 | 248 | 3.2 | 11.3 | 0.00 | 0.00 | 0.00 | 42 | 1021.6 |
| 20260501223018 | 16 | 246 | 4.8 | 11.3 | 0.00 | 0.00 | 0.00 | 42 | 1021.7 |
| 20260501222041 | 16 | 237 | 3.2 | 9.7 | 0.00 | 0.00 | 0.00 | 42 | 1021.7 |
| 20260501221018 | 16 | 251 | 4.8 | 8.0 | 0.00 | 0.00 | 0.00 | 42 | 1021.7 |
| 20260501220019 | 16 | 248 | 3.2 | 8.0 | 0.00 | 0.00 | 0.00 | 42 | 1021.8 |
| 20260501215018 | 16 | 250 | 3.2 | 8.0 | 0.00 | 0.00 | 0.00 | 42 | 1021.7 |
| 20260501214041 | 17 | 246 | 3.2 | 8.0 | 0.00 | 0.00 | 0.00 | 41 | 1021.8 |
| 20260501213018 | 17 | 254 | 3.2 | 8.0 | 0.00 | 0.00 | 0.00 | 41 | 1021.8 |
| 20260501212019 | 17 | 239 | 3.2 | 11.3 | 0.00 | 0.00 | 0.00 | 41 | 1021.7 |
| 20260501211018 | 17 | 233 | 3.2 | 9.7 | 0.00 | 0.00 | 0.00 | 40 | 1021.8 |
| 20260501210039 | 17 | 267 | 1.6 | 8.0 | 0.00 | 0.00 | 0.00 | 40 | 1021.8 |
| 20260501205018 | 17 | 247 | 3.2 | 8.0 | 0.00 | 0.00 | 0.00 | 40 | 1021.8 |
| 20260501204017 | 17 | 227 | 3.2 | 9.7 | 0.00 | 0.00 | 0.00 | 40 | 1021.9 |
| 20260501203018 | 17 | 256 | 1.6 | 11.3 | 0.00 | 0.00 | 0.00 | 40 | 1021.9 |
| 20260501202037 | 17 | 266 | 1.6 | 6.4 | 0.00 | 0.00 | 0.00 | 40 | 1022.0 |
| 20260501201018 | 17 | 212 | 1.6 | 6.4 | 0.00 | 0.00 | 0.00 | 40 | 1021.9 |
| 20260501200037 | 17 | 220 | 1.6 | 6.4 | 0.00 | 0.00 | 0.00 | 40 | 1022.0 |
| 20260501195019 | 18 | 253 | 3.2 | 6.4 | 0.00 | 0.00 | 0.00 | 40 | 1021.9 |
| 20260501194021 | 18 | 288 | 1.6 | 4.8 | 0.00 | 0.00 | 0.00 | 39 | 1021.9 |
| 20260501193019 | 18 | 274 | 1.6 | 4.8 | 0.00 | 0.00 | 0.00 | 39 | 1021.8 |
| 20260501192018 | 18 | 241 | 1.6 | 4.8 | 0.00 | 0.00 | 0.00 | 38 | 1021.8 |
| 20260501191039 | 18 | 202 | 1.6 | 6.4 | 0.00 | 0.00 | 0.00 | 38 | 1021.9 |
| 20260501190018 | 18 | 338 | 1.6 | 4.8 | 0.00 | 0.00 | 0.00 | 37 | 1021.8 |
| 20260501185039 | 19 | 263 | 1.6 | 4.8 | 0.00 | 0.00 | 0.00 | 36 | 1021.9 |
| 20260501184019 | 19 | 245 | 1.6 | 6.4 | 0.00 | 0.00 | 0.00 | 36 | 1021.9 |
| 20260501183018 | 20 | 253 | 1.6 | 6.4 | 0.00 | 0.00 | 0.00 | 35 | 1021.9 |
| 20260501182039 | 20 | 253 | 3.2 | 6.4 | 0.00 | 0.00 | 0.00 | 34 | 1021.8 |
| 20260501181018 | 20 | 206 | 3.2 | 9.7 | 0.00 | 0.00 | 0.00 | 34 | 1021.9 |
| 20260501180019 | 20 | 167 | 3.2 | 9.7 | 0.00 | 0.00 | 0.00 | 32 | 1021.8 |
| 20260501175020 | 21 | 196 | 3.2 | 9.7 | 0.00 | 0.00 | 0.00 | 32 | 1021.7 |
| 20260501174019 | 21 | 201 | 4.8 | 19.3 | 0.00 | 0.00 | 0.00 | 31 | 1021.8 |
| 20260501173018 | 21 | 224 | 4.8 | 14.5 | 0.00 | 0.00 | 0.00 | 30 | 1021.8 |
| 20260501172018 | 21 | 83 | 4.8 | 16.1 | 0.00 | 0.00 | 0.00 | 28 | 1021.8 |
| 20260501171019 | 21 | 246 | 3.2 | 16.1 | 0.00 | 0.00 | 0.00 | 29 | 1021.9 |
| 20260501170059 | 21 | 156 | 4.8 | 11.3 | 0.00 | 0.00 | 0.00 | 28 | 1021.9 |
| 20260501165017 | 22 | 164 | 3.2 | 12.9 | 0.00 | 0.00 | 0.00 | 27 | 1021.9 |
| 20260501164018 | 22 | 254 | 4.8 | 14.5 | 0.00 | 0.00 | 0.00 | 28 | 1021.9 |
| 20260501163017 | 22 | 241 | 4.8 | 17.7 | 0.00 | 0.00 | 0.00 | 27 | 1022.1 |
| 20260501162018 | 22 | 226 | 6.4 | 17.7 | 0.00 | 0.00 | 0.00 | 26 | 1022.1 |
| 20260501161018 | 23 | 241 | 4.8 | 14.5 | 0.00 | 0.00 | 0.00 | 26 | 1022.1 |
| 20260501160018 | 23 | 250 | 4.8 | 19.3 | 0.00 | 0.00 | 0.00 | 26 | 1022.2 |
| 20260501155017 | 23 | 123 | 4.8 | 12.9 | 0.00 | 0.00 | 0.00 | 26 | 1022.3 |
| 20260501154017 | 23 | 218 | 6.4 | 22.5 | 0.00 | 0.00 | 0.00 | 26 | 1022.3 |
| 20260501153106 | 23 | 244 | 8.0 | 27.4 | 0.00 | 0.00 | 0.00 | 26 | 1022.5 |
| 20260501152017 | 23 | 234 | 4.8 | 20.9 | 0.00 | 0.00 | 0.00 | 25 | 1022.6 |
| 20260501151017 | 23 | 108 | 8.0 | 17.7 | 0.00 | 0.00 | 0.00 | 26 | 1022.6 |